This is the latest recevied weather packets stored in our database for station/object iw0uwf-4. If no packets are shown the sender has not sent any weather packets the latest 1 day(s).
| Time | Temp. | Humidity | Pressure | Rain* | Wind** | Luminosity | Snow |
|---|---|---|---|---|---|---|---|
| 1778028424 | 15° C | 71% | 1003.8 hPa | 0 mm | 3.13 m/s, 251° | 0 W/m² | - |
| 1778028364 | 15° C | 71% | 1003.9 hPa | 0 mm | 3.13 m/s, 247° | 0 W/m² | - |
| 1778028303 | 15° C | 71% | 1003.7 hPa | 0 mm | 3.58 m/s, 239° | 0 W/m² | - |
| 1778028243 | 15° C | 71% | 1003.9 hPa | 0 mm | 3.58 m/s, 243° | 0 W/m² | - |
| 1778028184 | 15° C | 71% | 1003.9 hPa | 0 mm | 3.58 m/s, 254° | 0 W/m² | - |
| 1778028123 | 15° C | 71% | 1003.9 hPa | 0 mm | 3.58 m/s, 263° | 0 W/m² | - |
| 1778028063 | 15° C | 72% | 1003.9 hPa | 0 mm | 4.02 m/s, 264° | 0 W/m² | - |
| 1778028003 | 15° C | 72% | 1003.9 hPa | 0 mm | 4.02 m/s, 259° | 0 W/m² | - |
| 1778027943 | 15° C | 72% | 1003.7 hPa | 0 mm | 4.02 m/s, 261° | 0 W/m² | - |
| 1778027883 | 15° C | 73% | 1003.9 hPa | 0 mm | 4.47 m/s, 262° | 0 W/m² | - |
| 1778027823 | 15° C | 73% | 1004 hPa | 0 mm | 4.02 m/s, 260° | 0 W/m² | - |
| 1778027763 | 15° C | 73% | 1004 hPa | 0 mm | 4.02 m/s, 264° | 0 W/m² | - |
| 1778027703 | 15° C | 74% | 1003.9 hPa | 0 mm | 4.02 m/s, 267° | 0 W/m² | - |
| 1778027644 | 15° C | 75% | 1004.1 hPa | 0 mm | 4.02 m/s, 260° | 0 W/m² | - |
| 1778027585 | 15° C | 76% | 1004 hPa | 0 mm | 4.02 m/s, 254° | 0 W/m² | - |
| 1778027524 | 15° C | 76% | 1004 hPa | 0 mm | 3.58 m/s, 253° | 0 W/m² | - |
| 1778027464 | 14.44° C | 77% | 1003.9 hPa | 0 mm | 3.13 m/s, 237° | 0 W/m² | - |
| 1778027404 | 14.44° C | 79% | 1004 hPa | 0 mm | 3.13 m/s, 246° | 0 W/m² | - |
| 1778027344 | 14.44° C | 80% | 1004.1 hPa | 0 mm | 3.13 m/s, 243° | 0 W/m² | - |
| 1778027284 | 14.44° C | 80% | 1004.1 hPa | 0 mm | 3.13 m/s, 244° | 0 W/m² | - |
| 1778027224 | 14.44° C | 80% | 1004.1 hPa | 0 mm | 3.13 m/s, 243° | 0 W/m² | - |
| 1778027164 | 15° C | 80% | 1004.1 hPa | 0 mm | 3.13 m/s, 238° | 0 W/m² | - |
| 1778027104 | 15° C | 80% | 1004.1 hPa | 0 mm | 3.13 m/s, 227° | 0 W/m² | - |
| 1778027044 | 15° C | 80% | 1004.1 hPa | 0 mm | 3.13 m/s, 239° | 0 W/m² | - |
| 1778026983 | 15° C | 80% | 1003.9 hPa | 0 mm | 3.13 m/s, 244° | 0 W/m² | - |
* Rain latest hour (hover to see other rain measurements)
** Current wind speed in m/s (hover to see current wind gust speed)